This is the latest recevied weather packets stored in our database for station/object KY4GW. If no packets are shown the sender has not sent any weather packets the latest 10 day(s).
| Time | Temp. | Humidity | Pressure | Rain* | Wind** | Luminosity | Snow |
|---|---|---|---|---|---|---|---|
| 1778099595 | 16.11° C | 60% | 1015.1 hPa | 0 mm | - | 201 W/m² | - |
| 1778099292 | 16.11° C | 59% | 1015.1 hPa | 0 mm | - | 270 W/m² | - |
| 1778098989 | 17.22° C | 66% | 1015.1 hPa | 0 mm | - | 226 W/m² | - |
| 1778098685 | 17.22° C | 61% | 1015.1 hPa | 0 mm | - | 222 W/m² | - |
| 1778098383 | 16.67° C | 67% | 1015.8 hPa | 0 mm | - | 219 W/m² | - |
| 1778098080 | 16.67° C | 64% | 1015.8 hPa | 0 mm | - | 193 W/m² | - |
| 1778097775 | 16.67° C | 59% | 1015.8 hPa | 0 mm | - | 253 W/m² | - |
| 1778097472 | 16.11° C | 66% | 1015.8 hPa | 0 mm | - | 294 W/m² | - |
| 1778097169 | 16.67° C | 63% | 1015.8 hPa | 0 mm | - | 280 W/m² | - |
| 1778096866 | 16.67° C | 60% | 1015.8 hPa | 0 mm | - | 245 W/m² | - |
| 1778096562 | 17.22° C | 61% | 1015.5 hPa | 0 mm | - | 193 W/m² | - |
| 1778096260 | 17.22° C | 61% | 1015.5 hPa | 0 mm | - | 292 W/m² | - |
| 1778095957 | 17.22° C | 64% | 1015.5 hPa | 0 mm | - | 356 W/m² | - |
| 1778095653 | 16.67° C | 64% | 1015.5 hPa | 0 mm | - | 350 W/m² | - |
| 1778095350 | 16.67° C | 60% | 1015.5 hPa | 0 mm | - | 385 W/m² | - |
| 1778095047 | 16.67° C | 61% | 1015.5 hPa | 0 mm | - | 447 W/m² | - |
| 1778094743 | 16.67° C | 61% | 1015.5 hPa | 0 mm | - | 382 W/m² | - |
| 1778094440 | 16.67° C | 63% | 1015.5 hPa | 0 mm | - | 306 W/m² | - |
| 1778094137 | 16.67° C | 61% | 1015.5 hPa | 0 mm | - | 384 W/m² | - |
| 1778093834 | 16.67° C | 63% | 1015.5 hPa | 0 mm | - | 355 W/m² | - |
| 1778093530 | 16.11° C | 62% | 1015.5 hPa | 0 mm | - | 428 W/m² | - |
| 1778093228 | 16.11° C | 63% | 1015.5 hPa | 0 mm | - | 473 W/m² | - |
| 1778092925 | 15.56° C | 63% | 1015.5 hPa | 0 mm | - | 360 W/m² | - |
| 1778092621 | 15.56° C | 64% | 1015.5 hPa | 0 mm | - | 519 W/m² | - |
| 1778092317 | 15.56° C | 63% | 1015.5 hPa | 0 mm | - | 391 W/m² | - |
* Rain latest hour (hover to see other rain measurements)
** Current wind speed in m/s (hover to see current wind gust speed)